カタログに戻る

THOR ABLESTAR DEB

運用中LEO
NORAD 147·DEBRIS·🇺🇸 United States

打ち上げ Jun 29, 1961 から Cape Canaveral Space Force Station

Loading…

次のパス (今後24時間)

TLE

最新Source: Space-Track

元期: Sep 7, 2026, 04:39 UTC

1 00147U 61015AH  26250.19424148  .00000466  00000-0  23491-3 0  9991
2 00147  66.6167 147.4074 0048370  12.4490 347.7787 14.24380996346142

AllMySatでTHOR ABLESTAR DEBをリアルタイム追跡

Download on the App Store